DW6356 Weather Reports


time (UTC)temp
C
wind
direction
speed
KPH
gust
KPH
rain 1hr
cm
rain 24hr
cm
rain mn
cm
humidity
%
barometer
mb
20190420150032 21 70 1.6 9.7 0.00 0.00 0.00 26 1026.5
20190420144542 22 79 3.2 9.7 0.00 0.00 0.00 25 1026.5
20190420143022 23 84 0.0 12.9 0.00 0.00 0.00 25 1026.7
20190420141514 22 187 3.2 12.9 0.00 0.00 0.00 24 1026.9
20190420140018 21 94 1.6 12.9 0.00 0.00 0.00 28 1027.1
20190420134515 21 65 1.6 12.9 0.00 0.00 0.00 27 1027.2
20190420133003 21 148 1.6 12.9 0.00 0.00 0.00 25 1027.5
20190420131507 21 86 4.8 12.9 0.00 0.00 0.00 26 1027.6
20190420130201 21 57 4.8 9.7 0.00 0.00 0.00 27 1027.7
20190420124800 21 49 1.6 6.4 0.00 0.00 0.00 28 1027.9
20190420123249 20 79 3.2 8.0 0.00 0.00 0.00 29 1028.0
20190420121706 20 125 0.0 8.0 0.00 0.00 0.00 31 1028.3
20190420120213 20 72 1.6 11.3 0.00 0.00 0.00 29 1028.4
20190420114606 20 21 3.2 6.4 0.00 0.00 0.00 31 1028.5
20190420113103 19 50 4.8 9.7 0.00 0.00 0.00 29 1028.6
20190420111619 19 25 1.6 9.7 0.00 0.00 0.00 30 1028.8
20190420110158 19 117 3.2 6.4 0.00 0.00 0.00 29 1028.9
20190420104708 18 89 4.8 11.3 0.00 0.00 0.00 30 1029.0
20190420103207 18 107 1.6 11.3 0.00 0.00 0.00 32 1029.1
20190420101540 19 110 4.8 12.9 0.00 0.00 0.00 32 1029.1
20190420100126 18 98 3.2 12.9 0.00 0.00 0.00 31 1029.2
20190420094549 18 91 4.8 8.0 0.00 0.00 0.00 30 1029.3
20190420093119 18 143 0.0 6.4 0.00 0.00 0.00 34 1029.4
20190420091544 18 252 1.6 6.4 0.00 0.00 0.00 31 1029.6
20190420090102 17 92 3.2 6.4 0.00 0.00 0.00 37 1029.7
20190420084551 17 51 0.0 6.4 0.00 0.00 0.00 41 1029.9
20190420083031 16 123 0.0 4.8 0.00 0.00 0.00 42 1029.9
20190420081534 16 89 1.6 4.8 0.00 0.00 0.00 44 1030.0
20190420080022 15 49 0.0 4.8 0.00 0.00 0.00 44 1030.1
20190420074519 14 53 0.0 3.2 0.00 0.00 0.00 54 1030.1
20190420073018 13 108 0.0 3.2 0.00 0.00 0.00 55 1030.2
20190420071508 13 51 1.6 3.2 0.00 0.00 0.00 52 1030.2
20190420070146 12 58 0.0 3.2 0.00 0.00 0.00 53 1030.2
20190420064643 11 46 0.0 0.0 0.00 0.00 0.00 61 1030.2
20190420063142 10 67 0.0 3.2 0.00 0.00 0.00 65 1030.2
20190420061638 8 45 1.6 4.8 0.00 0.00 0.00 68 1030.1
20190420060119 8 32 0.0 0.0 0.00 0.00 0.00 69 1030.1
20190420054635 7 58 0.0 6.4 0.00 0.00 0.00 72 1030.1
20190420053109 6 26 1.6 4.8 0.00 0.00 0.00 75 1030.0
20190420051626 5 9 0.0 0.0 0.00 0.00 0.00 81 1030.0
20190420050122 4 229 0.0 0.0 0.00 0.00 0.00 84 1030.0
20190420044629 3 229 0.0 0.0 0.00 0.00 0.00 86 1029.9
20190420043208 3 229 0.0 0.0 0.00 0.00 0.00 87 1029.8
20190420041637 2 229 0.0 0.0 0.00 0.00 0.00 88 1029.7
20190420040100 2 229 0.0 0.0 0.00 0.00 0.00 88 1029.6
20190420034627 2 267 0.0 0.0 0.00 0.00 0.00 88 1029.6
20190420033116 2 266 0.0 0.0 0.00 0.00 0.00 87 1029.6
20190420031607 3 267 0.0 0.0 0.00 0.00 0.00 87 1029.6
20190420030144 3 278 0.0 3.2 0.00 0.00 0.00 86 1029.6
20190420024621 2 290 0.0 1.6 0.00 0.00 0.00 87 1029.6
20190420023121 3 200 0.0 0.0 0.00 0.00 0.00 86 1029.6
20190420021548 3 200 0.0 0.0 0.00 0.00 0.00 84 1029.6
20190420020110 3 200 0.0 0.0 0.00 0.00 0.00 84 1029.7
20190420014601 3 200 0.0 0.0 0.00 0.00 0.00 84 1029.7
20190420013037 3 200 0.0 0.0 0.00 0.00 0.00 83 1029.6
20190420011545 4 200 0.0 0.0 0.00 0.00 0.00 82 1029.6
20190420010036 5 200 0.0 0.0 0.00 0.00 0.00 80 1029.5
20190420004529 5 200 0.0 0.0 0.00 0.00 0.00 78 1029.6
20190420003036 6 200 0.0 6.4 0.00 0.00 0.00 77 1029.5
20190420001546 7 200 0.0 6.4 0.00 0.00 0.00 72 1029.5
20190420000011 8 200 1.6 6.4 0.00 0.00 0.00 66 1029.4
20190419234537 8 234 4.8 6.4 0.00 0.00 0.00 61 1029.4
20190419231656 10 71 0.0 4.8 0.00 0.00 0.00 58 1029.1
20190419230225 8 232 0.0 4.8 0.00 0.00 0.00 63 1029.1
20190419224652 9 256 0.0 4.8 0.00 0.00 0.00 66 1029.0
20190419223200 10 170 0.0 4.8 0.00 0.00 0.00 60 1029.0
20190419221619 10 139 0.0 3.2 0.00 0.00 0.00 64 1028.9
20190419220129 10 311 0.0 4.8 0.00 0.00 0.00 63 1028.9
20190419214731 10 224 0.0 14.5 0.00 0.00 0.00 59 1028.9
20190419213205 10 322 0.0 14.5 0.00 0.00 0.00 63 1028.9
20190419211621 10 141 0.0 14.5 0.00 0.00 0.00 67 1028.8
20190419210249 11 179 0.0 14.5 0.00 0.00 0.00 61 1028.8
20190419204628 11 230 0.0 14.5 0.00 0.00 0.00 58 1028.6
20190419203146 11 228 0.0 14.5 0.00 0.00 0.00 57 1028.6
20190419201606 11 108 0.0 14.5 0.00 0.00 0.00 62 1028.6
20190419200116 10 173 0.0 14.5 0.00 0.00 0.00 65 1028.5
20190419194636 10 142 0.0 14.5 0.00 0.00 0.00 67 1028.5
20190419193130 11 142 0.0 14.5 0.00 0.00 0.00 62 1028.5
20190419191623 11 131 0.0 14.5 0.00 0.00 0.00 65 1028.4
20190419190117 12 200 0.0 14.5 0.00 0.00 0.00 59 1028.4
20190419184606 13 241 3.2 14.5 0.00 0.00 0.00 55 1028.3
20190419183104 14 246 3.2 14.5 0.00 0.00 0.00 52 1028.1
20190419181622 16 228 1.6 14.5 0.00 0.00 0.00 47 1028.0
20190419180058 16 319 0.0 14.5 0.00 0.00 0.00 43 1027.9
20190419174606 17 341 0.0 14.5 0.00 0.00 0.00 43 1027.9
20190419173102 17 355 0.0 14.5 0.00 0.00 0.00 43 1027.8
20190419171658 17 16 0.0 14.5 0.00 0.00 0.00 42 1027.7
20190419170110 18 26 0.0 14.5 0.00 0.00 0.00 40 1027.7
20190419164625 20 15 3.2 14.5 0.00 0.00 0.00 37 1027.6
20190419163104 21 27 4.8 14.5 0.00 0.00 0.00 35 1027.6
20190419161558 21 53 4.8 14.5 0.00 0.00 0.00 33 1027.6
20190419160103 22 70 3.2 12.9 0.00 0.00 0.00 33 1027.7
20190419154559 22 82 3.2 12.9 0.00 0.00 0.00 35 1027.6
20190419153115 21 77 3.2 11.3 0.00 0.00 0.00 38 1027.7
20190419151603 21 54 4.8 11.3 0.00 0.00 0.00 38 1027.8